Location: Gwatt
(46.7204°N, 7.6223°E)
Time: 16:06:00
(UTC+00:00)

deb Explorer IX - Pass Details

Date: 21 January 2021
Orbit: 537 x 1102 km, 38.8° (Epoch: 04 March)

Event Time Altitude Azimuth Distance (km) Brightness Sun altitude
Rises 19:17:31 0° 242° (WSW) 3,466 ? -30.6°
Reaches altitude 10° 19:20:29 10° 233° (SW) 2,424 ? -31.1°
Enters shadow 19:23:34 25° 207° (SSW) 1,518 ? -31.7°
Maximum altitude 19:25:26 31° 172° (S) 1,270 - -32.0°
Drops below altitude 10° 19:29:44 10° 110° (ESE) 2,097 - -32.7°
Sets 19:32:08 0° 100° (E) 2,929 - -33.1°
